Date,Installs,Update checks
2020-08-12,2,0
2020-08-13,8,0
2020-08-14,10,0
2020-08-15,11,0
2020-08-16,5,0
2020-08-17,13,1
2020-08-18,6,2
2020-08-19,11,0
2020-08-20,6,3
2020-08-21,11,2
2020-08-22,5,4
2020-08-23,11,2
2020-08-24,7,4
2020-08-25,7,5
2020-08-26,8,7
2020-08-27,4,5
2020-08-28,1,5
2020-08-29,8,4
2020-08-30,7,5
2020-08-31,5,2
2020-09-01,7,7
2020-09-02,4,5
2020-09-03,2,2
2020-09-04,8,3
2020-09-05,8,8
2020-09-06,8,3
2020-09-07,1,4
2020-09-08,6,3
2020-09-09,4,2
2020-09-10,5,6
2020-09-11,12,7
2020-09-12,10,7
2020-09-13,6,7
2020-09-14,11,10
2020-09-15,2,7
2020-09-16,6,6
2020-09-17,12,7
2020-09-18,8,10
2020-09-19,9,6
2020-09-20,5,11
2020-09-21,7,7
2020-09-22,5,9
2020-09-23,9,7
2020-09-24,2,10
2020-09-25,12,11
2020-09-26,6,10
2020-09-27,4,7
2020-09-28,8,5
2020-09-29,6,7
2020-09-30,1,7
2020-10-01,2,9
2020-10-02,12,4
2020-10-03,7,6
2020-10-04,6,6
2020-10-05,2,6
2020-10-06,4,13
2020-10-07,12,11
2020-10-08,6,14
2020-10-09,4,17
2020-10-10,6,9
2020-10-11,3,15
2020-10-12,6,12
2020-10-13,8,14
2020-10-14,5,18
2020-10-15,9,23
2020-10-16,6,19
2020-10-17,9,10
2020-10-18,7,13
2020-10-19,8,15
2020-10-20,5,7
2020-10-21,0,13
2020-10-22,1,10
2020-10-23,0,12
2020-10-24,2,11
2020-10-25,2,10
2020-10-26,2,15
2020-10-27,5,16
2020-10-28,7,17
2020-10-29,12,22
2020-10-30,5,15
2020-10-31,11,20
2020-11-01,2,15
2020-11-02,6,18
2020-11-03,2,14
2020-11-04,1,21
2020-11-05,6,16
2020-11-06,1,13
2020-11-07,5,12
2020-11-08,3,16
2020-11-09,3,10
2020-11-10,4,11
2020-11-11,1,15
2020-11-12,7,17
2020-11-13,5,19
2020-11-14,2,11
2020-11-15,4,15
2020-11-16,5,19
2020-11-17,4,13
2020-11-18,1,12
2020-11-19,3,11
2020-11-20,8,13
2020-11-21,0,15
2020-11-22,2,14
2020-11-23,7,10
2020-11-24,8,15
2020-11-25,11,15
2020-11-26,11,11
2020-11-27,9,15
2020-11-28,8,17
2020-11-29,6,12
2020-11-30,5,18
2020-12-01,1,15
2020-12-02,3,19
2020-12-03,10,19
2020-12-04,12,15
2020-12-05,13,15
2020-12-06,11,14
2020-12-07,9,20
2020-12-08,5,16
2020-12-09,8,15
2020-12-10,17,19
2020-12-11,22,14
2020-12-12,6,20
2020-12-13,7,13
2020-12-14,12,22
2020-12-15,27,18
2020-12-16,13,20
2020-12-17,11,25
2020-12-18,13,16
2020-12-19,15,21
2020-12-20,13,15
2020-12-21,17,16
2020-12-22,14,24
2020-12-23,13,21
2020-12-24,11,19
2020-12-25,7,16
2020-12-26,13,17
2020-12-27,10,21
2020-12-28,5,25
2020-12-29,4,23
2020-12-30,10,17
2020-12-31,2,16
2021-01-01,4,16
2021-01-02,2,23
2021-01-03,9,23
2021-01-04,13,29
2021-01-05,15,28
2021-01-06,16,33
2021-01-07,18,30
2021-01-08,19,36
2021-01-09,13,29
2021-01-10,17,26
2021-01-11,21,37
2021-01-12,22,40
2021-01-13,14,39
2021-01-14,22,51
2021-01-15,23,42
2021-01-16,9,37
2021-01-17,14,32
2021-01-18,29,33
2021-01-19,17,53
2021-01-20,21,40
2021-01-21,27,51
2021-01-22,16,60
2021-01-23,13,43
2021-01-24,17,39
2021-01-25,27,55
2021-01-26,16,62
2021-01-27,25,55
2021-01-28,20,58
2021-01-29,22,65
2021-01-30,17,47
2021-01-31,10,53
2021-02-01,16,52
2021-02-02,20,60
2021-02-03,19,61
2021-02-04,21,57
2021-02-05,16,68
2021-02-06,24,49
2021-02-07,17,48
2021-02-08,24,64
2021-02-09,28,56
2021-02-10,18,48
2021-02-11,27,55
2021-02-12,24,46
2021-02-13,12,43
2021-02-14,9,36
2021-02-15,6,58
2021-02-16,9,60
2021-02-17,11,58
2021-02-18,13,57
2021-02-19,17,61
2021-02-20,9,48
2021-02-21,13,43
2021-02-22,18,52
2021-02-23,18,55
2021-02-24,15,61
2021-02-25,20,63
2021-02-26,27,66
2021-02-27,11,53
2021-02-28,8,61
2021-03-01,11,81
2021-03-02,20,79
2021-03-03,17,68
2021-03-04,22,79
2021-03-05,28,89
2021-03-06,17,65
2021-03-07,22,64
2021-03-08,20,68
2021-03-09,16,58
2021-03-10,18,58
2021-03-11,17,57
2021-03-12,22,61
2021-03-13,22,42
2021-03-14,16,50
2021-03-15,22,73
2021-03-16,21,70
2021-03-17,30,52
2021-03-18,15,62
2021-03-19,22,57
2021-03-20,13,52
2021-03-21,15,40
2021-03-22,19,66
2021-03-23,18,59
2021-03-24,21,49
2021-03-25,18,71
2021-03-26,16,45
2021-03-27,20,42
2021-03-28,13,46
2021-03-29,22,50
2021-03-30,12,48
2021-03-31,22,55
2021-04-01,24,68
2021-04-02,31,52
2021-04-03,17,48
2021-04-04,11,40
2021-04-05,13,50
2021-04-06,26,62
2021-04-07,28,61
2021-04-08,25,63
2021-04-09,17,61
2021-04-10,12,56
2021-04-11,10,64
2021-04-12,11,49
2021-04-13,11,66
2021-04-14,21,74
2021-04-15,24,64
2021-04-16,17,112
2021-04-17,10,74
2021-04-18,13,75
2021-04-19,9,100
2021-04-20,13,98
2021-04-21,13,93
2021-04-22,11,94
2021-04-23,14,96
2021-04-24,11,76
2021-04-25,7,81
2021-04-26,12,94
2021-04-27,24,91
2021-04-28,22,90
2021-04-29,23,98
2021-04-30,12,83
2021-05-01,5,70
2021-05-02,11,77
2021-05-03,11,90
2021-05-04,9,105
2021-05-05,11,91
2021-05-06,11,88
2021-05-07,11,86
2021-05-08,8,74
2021-05-09,10,78
2021-05-10,7,99
2021-05-11,9,99
2021-05-12,9,82
2021-05-13,4,88
2021-05-14,7,86
2021-05-15,6,65
2021-05-16,5,63
2021-05-17,12,92
2021-05-18,11,81
2021-05-19,14,91
2021-05-20,12,89
2021-05-21,16,90
2021-05-22,10,77
2021-05-23,9,94
2021-05-24,13,90
2021-05-25,14,101
2021-05-26,7,86
2021-05-27,7,87
2021-05-28,3,95
2021-05-29,11,61
2021-05-30,7,72
2021-05-31,7,87
2021-06-01,1,98
2021-06-02,5,73
2021-06-03,7,82
2021-06-04,11,91
2021-06-05,5,68
2021-06-06,9,77
2021-06-07,8,83
2021-06-08,8,86
2021-06-09,10,78
2021-06-10,3,82
2021-06-11,13,86
2021-06-12,6,73
2021-06-13,7,67
2021-06-14,10,85
2021-06-15,10,88
2021-06-16,2,83
2021-06-17,6,87
2021-06-18,13,80
2021-06-19,13,74
2021-06-20,9,62
2021-06-21,16,74
2021-06-22,8,75
2021-06-23,12,75
2021-06-24,3,77
2021-06-25,6,78
2021-06-26,5,59
2021-06-27,12,52
2021-06-28,5,79
2021-06-29,11,66
2021-06-30,8,76
2021-07-01,13,63
2021-07-02,9,69
2021-07-03,6,67
2021-07-04,6,53
2021-07-05,7,58
2021-07-06,10,65
2021-07-07,12,70
2021-07-08,10,69
2021-07-09,10,64
2021-07-10,2,54
2021-07-11,4,61
2021-07-12,11,67
2021-07-13,10,71
2021-07-14,4,65
2021-07-15,6,64
2021-07-16,6,60
2021-07-17,5,58
2021-07-18,1,4
2021-07-19,4,25
2021-07-20,4,54
2021-07-21,9,57
2021-07-22,8,50
2021-07-23,6,54
2021-07-24,8,56
2021-07-25,3,59
2021-07-26,8,60
2021-07-27,5,48
2021-07-28,9,53
2021-07-29,5,67
2021-07-30,5,59
2021-07-31,9,51
2021-08-01,5,45
2021-08-02,8,61
2021-08-03,10,58
2021-08-04,6,57
2021-08-05,7,64
2021-08-06,6,59
2021-08-07,7,52
2021-08-08,4,47
2021-08-09,8,53
2021-08-10,7,62
2021-08-11,3,58
2021-08-12,7,45
2021-08-13,3,62
2021-08-14,4,51
2021-08-15,4,43
2021-08-16,11,62
2021-08-17,13,58
2021-08-18,11,60
2021-08-19,12,70
2021-08-20,12,63
2021-08-21,16,65
2021-08-22,13,67
2021-08-23,8,68
2021-08-24,4,62
2021-08-25,7,67
2021-08-26,8,67
2021-08-27,11,63
2021-08-28,9,62
2021-08-29,2,69
2021-08-30,10,65
2021-08-31,3,73
2021-09-01,3,64
2021-09-02,6,77
2021-09-03,2,69
2021-09-04,8,63
2021-09-05,6,66
2021-09-06,9,61
2021-09-07,6,69
2021-09-08,7,65
2021-09-09,14,75
2021-09-10,7,58
2021-09-11,0,64
2021-09-12,0,72
2021-09-13,0,75
2021-09-14,0,77
2021-09-15,0,67
2021-09-16,0,71
2021-09-17,0,69
2021-09-18,0,55
2021-09-19,0,50
2021-09-20,0,75
2021-09-21,0,69
2021-09-22,0,62
2021-09-23,0,69
2021-09-24,0,53
2021-09-25,0,59
2021-09-26,0,60
2021-09-27,0,64
2021-09-28,0,70
2021-09-29,0,59
2021-09-30,0,64
2021-10-01,0,56
2021-10-02,0,59
2021-10-03,0,59
2021-10-04,0,60
2021-10-05,0,66
2021-10-06,0,60
2021-10-07,0,53
2021-10-08,0,56
2021-10-09,0,50
2021-10-10,0,59
2021-10-11,0,54
2021-10-12,0,54
2021-10-13,0,54
2021-10-14,0,55
2021-10-15,0,51
2021-10-16,0,53
2021-10-17,0,48
2021-10-18,0,59
2021-10-19,0,56
2021-10-20,0,54
2021-10-21,0,54
2021-10-22,0,58
2021-10-23,0,54
2021-10-24,0,48
2021-10-25,0,58
2021-10-26,0,55
2021-10-27,0,53
2021-10-28,0,53
2021-10-29,0,53
2021-10-30,0,46
2021-10-31,0,48
2021-11-01,0,45
2021-11-02,0,61
2021-11-03,0,51
2021-11-04,0,51
2021-11-05,0,54
2021-11-06,0,41
2021-11-07,0,41
2021-11-08,0,43
2021-11-09,0,55
2021-11-10,0,49
2021-11-11,0,38
2021-11-12,0,48
2021-11-13,0,34
2021-11-14,0,40
2021-11-15,0,53
2021-11-16,0,48
2021-11-17,0,46
2021-11-18,0,52
2021-11-19,0,37
2021-11-20,0,39
2021-11-21,0,33
2021-11-22,19,43
2021-11-23,20,53
2021-11-24,20,47
2021-11-25,31,52
2021-11-26,19,49
2021-11-27,32,53
2021-11-28,14,49
2021-11-29,21,64
2021-11-30,23,60
2021-12-01,22,56
2021-12-02,29,78
2021-12-03,29,59
2021-12-04,24,60
2021-12-05,27,67
2021-12-06,15,77
2021-12-07,26,73
2021-12-08,21,82
2021-12-09,36,72
2021-12-10,23,93
2021-12-11,32,70
2021-12-12,21,74
2021-12-13,25,85
2021-12-14,40,87
2021-12-15,29,108
2021-12-16,26,93
2021-12-17,30,88
2021-12-18,17,91
2021-12-19,16,87
2021-12-20,25,84
2021-12-21,27,85
2021-12-22,20,78
2021-12-23,18,74
2021-12-24,24,67
2021-12-25,9,66
2021-12-26,23,78
2021-12-27,23,86
2021-12-28,26,72
2021-12-29,15,84
2021-12-30,16,80
2021-12-31,21,90
2022-01-01,19,89
2022-01-02,30,96
2022-01-03,22,102
2022-01-04,24,103
2022-01-05,23,95
2022-01-06,27,94
2022-01-07,17,101
2022-01-08,22,86
2022-01-09,21,6
2022-01-10,17,0
2022-01-11,26,124
2022-01-12,22,118
2022-01-13,33,117
2022-01-14,16,122
2022-01-15,17,102
2022-01-16,21,106
2022-01-17,23,121
2022-01-18,30,129
2022-01-19,28,121
2022-01-20,24,131
2022-01-21,25,126
2022-01-22,24,106
2022-01-23,30,121
2022-01-24,19,138
2022-01-25,23,150
2022-01-26,23,135
2022-01-27,17,127
2022-01-28,22,121
2022-01-29,21,106
2022-01-30,21,113
2022-01-31,22,123
2022-02-01,26,133
2022-02-02,18,136
2022-02-03,31,127
2022-02-04,37,136
2022-02-05,20,115
2022-02-06,19,120
2022-02-07,20,145
2022-02-08,31,133
2022-02-09,25,138
2022-02-10,36,147
2022-02-11,25,148
2022-02-12,28,119
2022-02-13,28,119
2022-02-14,18,151
2022-02-15,23,154
2022-02-16,28,144
2022-02-17,28,153
2022-02-18,34,143
2022-02-19,27,133
2022-02-20,14,126
2022-02-21,16,132
2022-02-22,31,149
2022-02-23,22,152
2022-02-24,22,160
2022-02-25,38,142
2022-02-26,22,114
2022-02-27,20,125
2022-02-28,19,162
2022-03-01,18,165
2022-03-02,29,157
2022-03-03,33,172
2022-03-04,23,173
2022-03-05,18,145
2022-03-06,42,158
2022-03-07,25,189
2022-03-08,20,170
2022-03-09,30,186
2022-03-10,47,190
2022-03-11,42,188
2022-03-12,34,161
2022-03-13,32,154
2022-03-14,33,183
2022-03-15,32,180
2022-03-16,30,190
2022-03-17,24,187
2022-03-18,36,198
2022-03-19,31,149
2022-03-20,21,166
2022-03-21,17,194
2022-03-22,20,196
2022-03-23,33,187
2022-03-24,19,201
2022-03-25,27,189
2022-03-26,22,162
2022-03-27,36,166
2022-03-28,37,194
2022-03-29,45,216
2022-03-30,46,214
2022-03-31,45,230
2022-04-01,49,198
2022-04-02,48,185
2022-04-03,38,179
2022-04-04,42,212
2022-04-05,40,242
2022-04-06,50,239
2022-04-07,46,238
2022-04-08,67,242
2022-04-09,46,206
2022-04-10,38,201
2022-04-11,50,240
2022-04-12,41,263
2022-04-13,48,250
2022-04-14,51,216
2022-04-15,49,220
2022-04-16,34,185
2022-04-17,32,180
2022-04-18,42,236
2022-04-19,48,250
2022-04-20,44,241
2022-04-21,42,261
2022-04-22,34,248
2022-04-23,45,210
2022-04-24,28,220
2022-04-25,34,281
2022-04-26,38,266
2022-04-27,43,244
2022-04-28,41,267
2022-04-29,47,255
2022-04-30,41,235
2022-05-01,44,226
2022-05-02,48,287
2022-05-03,49,269
2022-05-04,64,284
2022-05-05,45,290
2022-05-06,53,298
2022-05-07,48,242
2022-05-08,40,261
2022-05-09,49,320
2022-05-10,57,304
2022-05-11,55,331
2022-05-12,54,335
2022-05-13,48,311
2022-05-14,36,259
2022-05-15,45,266
2022-05-16,36,324
2022-05-17,53,311
2022-05-18,45,319
2022-05-19,37,318
2022-05-20,48,313
2022-05-21,40,239
2022-05-22,53,290
2022-05-23,35,310
2022-05-24,48,320
2022-05-25,53,318
2022-05-26,49,320
2022-05-27,44,299
2022-05-28,31,264
2022-05-29,27,275
2022-05-30,42,349
2022-05-31,51,334
2022-06-01,44,334
2022-06-02,41,309
2022-06-03,68,296
2022-06-04,41,254
2022-06-05,38,282
2022-06-06,40,318
2022-06-07,36,327
2022-06-08,43,327
2022-06-09,47,318
2022-06-10,40,312
2022-06-11,37,267
2022-06-12,35,279
2022-06-13,29,328
2022-06-14,44,307
2022-06-15,27,306
2022-06-16,28,324
2022-06-17,37,298
2022-06-18,36,281
2022-06-19,32,267
2022-06-20,40,337
2022-06-21,49,328
2022-06-22,29,312
2022-06-23,37,313
2022-06-24,20,283
2022-06-25,28,276
2022-06-26,37,273
2022-06-27,45,296
2022-06-28,37,311
2022-06-29,40,310
2022-06-30,39,290
2022-07-01,28,294
2022-07-02,33,257
2022-07-03,23,252
2022-07-04,38,303
2022-07-05,19,306
2022-07-06,17,290
2022-07-07,26,291
2022-07-08,31,284
2022-07-09,25,251
2022-07-10,24,272
2022-07-11,17,275
2022-07-12,26,288
2022-07-13,37,296
2022-07-14,24,282
2022-07-15,34,292
2022-07-16,31,274
2022-07-17,28,260
2022-07-18,30,299
2022-07-19,27,302
2022-07-20,32,308
2022-07-21,27,281
2022-07-22,33,289
2022-07-23,27,274
2022-07-24,16,209
2022-07-25,20,285
2022-07-26,26,279
2022-07-27,28,295
2022-07-28,24,288
2022-07-29,24,280
2022-07-30,30,226
2022-07-31,25,276
2022-08-01,25,306
2022-08-02,28,278
2022-08-03,16,289
2022-08-04,20,270
2022-08-05,18,284
2022-08-06,26,263
2022-08-07,25,269
2022-08-08,21,280
2022-08-09,29,271
2022-08-10,27,294
2022-08-11,19,294
2022-08-12,25,278
2022-08-13,11,261
2022-08-14,15,263
2022-08-15,30,290
2022-08-16,29,297
2022-08-17,25,281
2022-08-18,14,274
2022-08-19,30,306
2022-08-20,28,273
2022-08-21,21,288
2022-08-22,29,321
2022-08-23,34,303
2022-08-24,29,307
2022-08-25,24,306
2022-08-26,34,288
2022-08-27,32,271
2022-08-28,24,280
2022-08-29,16,322
2022-08-30,25,332
2022-08-31,30,341
2022-09-01,48,345
2022-09-02,34,313
2022-09-03,37,284
2022-09-04,33,286
2022-09-05,33,320
2022-09-06,31,355
2022-09-07,37,364
2022-09-08,37,361
2022-09-09,31,339
2022-09-10,25,312
2022-09-11,30,307
2022-09-12,30,351
2022-09-13,27,383
2022-09-14,28,366
2022-09-15,32,357
2022-09-16,31,338
2022-09-17,23,289
2022-09-18,21,326
2022-09-19,20,387
2022-09-20,22,380
2022-09-21,21,382
2022-09-22,25,368
2022-09-23,34,358
2022-09-24,31,317
2022-09-25,41,316
2022-09-26,22,375
2022-09-27,39,395
2022-09-28,37,384
2022-09-29,35,376
2022-09-30,38,384
2022-10-01,34,320
2022-10-02,22,355
2022-10-03,36,412
2022-10-04,24,412
2022-10-05,30,384
2022-10-06,32,398
2022-10-07,35,379
2022-10-08,17,349
2022-10-09,24,321
2022-10-10,22,411
2022-10-11,31,425
2022-10-12,34,409
2022-10-13,18,412
2022-10-14,35,403
2022-10-15,24,347
2022-10-16,28,328
2022-10-17,32,421
2022-10-18,30,397
2022-10-19,33,416
2022-10-20,33,398
2022-10-21,30,367
2022-10-22,36,347
2022-10-23,30,328
2022-10-24,37,441
2022-10-25,25,405
2022-10-26,22,386
2022-10-27,17,407
2022-10-28,33,375
2022-10-29,23,321
2022-10-30,25,310
2022-10-31,27,388
2022-11-01,34,386
2022-11-02,19,401
2022-11-03,31,398
2022-11-04,30,382
2022-11-05,26,327
2022-11-06,39,325
2022-11-07,21,419
2022-11-08,15,439
2022-11-09,18,406
2022-11-10,24,411
2022-11-11,25,395
2022-11-12,21,320
2022-11-13,20,334
2022-11-14,22,424
2022-11-15,20,424
2022-11-16,28,402
2022-11-17,23,345
2022-11-18,27,340
2022-11-19,30,285
2022-11-20,29,284
2022-11-21,24,357
2022-11-22,20,394
2022-11-23,22,379
2022-11-24,16,323
2022-11-25,30,323
2022-11-26,20,289
2022-11-27,27,293
2022-11-28,24,397
2022-11-29,18,376
2022-11-30,26,346
2022-12-01,26,342
2022-12-02,28,337
2022-12-03,28,277
2022-12-04,27,306
2022-12-05,19,380
2022-12-06,27,329
2022-12-07,27,363
2022-12-08,30,346
2022-12-09,15,324
2022-12-10,25,289
2022-12-11,30,294
2022-12-12,23,369
2022-12-13,24,327
2022-12-14,23,318
2022-12-15,25,342
2022-12-16,25,297
2022-12-17,15,260
2022-12-18,18,269
2022-12-19,19,323
2022-12-20,23,317
2022-12-21,19,292
2022-12-22,23,256
2022-12-23,21,270
2022-12-24,15,232
2022-12-25,9,235
2022-12-26,12,238
2022-12-27,24,262
2022-12-28,27,257
2022-12-29,22,268
2022-12-30,19,272
2022-12-31,17,205
2023-01-01,16,239
2023-01-02,21,313
2023-01-03,13,366
2023-01-04,21,349
2023-01-05,18,353
2023-01-06,19,355
2023-01-07,23,325
2023-01-08,19,342
2023-01-09,12,401
2023-01-10,12,398
2023-01-11,21,386
2023-01-12,28,402
2023-01-13,28,380
2023-01-14,22,320
2023-01-15,26,327
2023-01-16,18,371
2023-01-17,21,409
2023-01-18,13,399
2023-01-19,28,379
2023-01-20,20,375
2023-01-21,28,316
2023-01-22,19,320
2023-01-23,24,382
2023-01-24,24,373
2023-01-25,26,377
2023-01-26,20,389
2023-01-27,29,373
2023-01-28,22,319
2023-01-29,25,351
2023-01-30,14,411
2023-01-31,23,415
2023-02-01,22,384
2023-02-02,10,411
2023-02-03,15,370
2023-02-04,16,313
2023-02-05,25,343
2023-02-06,20,412
2023-02-07,13,404
2023-02-08,24,392
2023-02-09,21,376
2023-02-10,17,376
2023-02-11,20,314
2023-02-12,21,313
2023-02-13,11,383
2023-02-14,15,373
2023-02-15,27,369
2023-02-16,21,386
2023-02-17,24,342
2023-02-18,22,288
2023-02-19,20,323
2023-02-20,19,368
2023-02-21,14,351
2023-02-22,30,367
2023-02-23,15,352
2023-02-24,18,364
2023-02-25,24,290
2023-02-26,17,335
2023-02-27,13,394
2023-02-28,19,389
2023-03-01,18,377
2023-03-02,25,376
2023-03-03,27,385
2023-03-04,25,304
2023-03-05,14,329
2023-03-06,18,397
2023-03-07,16,388
2023-03-08,27,369
2023-03-09,19,358
2023-03-10,20,346
2023-03-11,24,315
2023-03-12,26,329
2023-03-13,20,394
2023-03-14,13,370
2023-03-15,20,365
2023-03-16,14,376
2023-03-17,15,347
2023-03-18,16,285
2023-03-19,16,299
2023-03-20,19,381
2023-03-21,28,387
2023-03-22,19,389
2023-03-23,17,379
2023-03-24,16,364
2023-03-25,28,301
2023-03-26,19,322
2023-03-27,23,396
2023-03-28,16,388
2023-03-29,13,346
2023-03-30,26,368
2023-03-31,23,350
2023-04-01,17,314
2023-04-02,13,304
2023-04-03,22,356
2023-04-04,15,351
2023-04-05,23,340
2023-04-06,26,331
2023-04-07,23,299
2023-04-08,14,300
2023-04-09,12,299
2023-04-10,21,324
2023-04-11,15,370
2023-04-12,20,366
2023-04-13,20,356
2023-04-14,14,330
2023-04-15,20,291
2023-04-16,17,304
2023-04-17,21,376
2023-04-18,19,357
2023-04-19,17,359
2023-04-20,28,372
2023-04-21,20,345
2023-04-22,20,289
2023-04-23,18,306
2023-04-24,25,378
2023-04-25,19,357
2023-04-26,20,392
2023-04-27,14,366
2023-04-28,27,356
2023-04-29,30,293
2023-04-30,27,315
2023-05-01,32,364
2023-05-02,39,375
2023-05-03,27,383
2023-05-04,33,404
2023-05-05,22,340
2023-05-06,24,303
2023-05-07,27,301
2023-05-08,24,400
2023-05-09,25,356
2023-05-10,32,363
2023-05-11,17,369
2023-05-12,25,345
2023-05-13,17,290
2023-05-14,20,312
2023-05-15,25,385
2023-05-16,31,370
2023-05-17,32,356
2023-05-18,25,373
2023-05-19,26,339
2023-05-20,30,290
2023-05-21,19,306
2023-05-22,23,365
2023-05-23,33,408
2023-05-24,23,356
2023-05-25,33,374
2023-05-26,30,322
2023-05-27,25,267
2023-05-28,15,304
2023-05-29,23,327
2023-05-30,24,360
2023-05-31,20,358
2023-06-01,24,368
2023-06-02,18,326
2023-06-03,23,313
2023-06-04,24,287
2023-06-05,25,365
2023-06-06,28,344
2023-06-07,26,348
2023-06-08,23,331
2023-06-09,15,326
2023-06-10,14,285
2023-06-11,15,293
2023-06-12,17,356
2023-06-13,18,352
2023-06-14,26,340
2023-06-15,21,331
2023-06-16,13,311
2023-06-17,16,300
2023-06-18,20,302
2023-06-19,20,333
2023-06-20,28,317
2023-06-21,25,345
2023-06-22,27,336
2023-06-23,13,304
2023-06-24,26,286
2023-06-25,16,280
2023-06-26,15,332
2023-06-27,16,324
2023-06-28,17,318
2023-06-29,9,290
2023-06-30,12,281
2023-07-01,18,276
2023-07-02,12,273
2023-07-03,16,285
2023-07-04,15,300
2023-07-05,18,284
2023-07-06,11,288
2023-07-07,12,274
2023-07-08,13,276
2023-07-09,14,276
2023-07-10,19,290
2023-07-11,10,296
2023-07-12,13,296
2023-07-13,16,289
2023-07-14,9,277
2023-07-15,16,251
2023-07-16,10,275
2023-07-17,16,273
2023-07-18,16,265
2023-07-19,18,271
2023-07-20,22,283
2023-07-21,13,261
2023-07-22,18,246
2023-07-23,8,293
2023-07-24,6,304
2023-07-25,13,281
2023-07-26,16,283
2023-07-27,14,296
2023-07-28,13,306
2023-07-29,14,268
2023-07-30,13,259
2023-07-31,28,287
2023-08-01,15,290
2023-08-02,14,262
2023-08-03,14,287
2023-08-04,9,269
2023-08-05,9,248
2023-08-06,14,271
2023-08-07,19,269
2023-08-08,23,288
2023-08-09,14,286
2023-08-10,25,262
2023-08-11,21,289
2023-08-12,17,240
2023-08-13,22,269
2023-08-14,20,277
2023-08-15,16,287
2023-08-16,11,263
2023-08-17,16,279
2023-08-18,20,278
2023-08-19,23,275
2023-08-20,11,265
2023-08-21,13,279
2023-08-22,19,286
2023-08-23,23,278
2023-08-24,12,294
2023-08-25,8,285
2023-08-26,17,267
2023-08-27,18,268
2023-08-28,13,299
2023-08-29,17,316
2023-08-30,19,323
2023-08-31,17,302
2023-09-01,14,303
2023-09-02,15,264
2023-09-03,16,293
2023-09-04,9,302
2023-09-05,19,339
2023-09-06,18,311
2023-09-07,12,317
2023-09-08,14,327
2023-09-09,24,265
2023-09-10,13,316
2023-09-11,17,357
2023-09-12,24,323
2023-09-13,17,348
2023-09-14,24,333
2023-09-15,14,300
2023-09-16,12,283
2023-09-17,26,275
2023-09-18,23,343
2023-09-19,17,335
2023-09-20,19,336
2023-09-21,19,355
2023-09-22,19,336
2023-09-23,11,268
2023-09-24,23,300
2023-09-25,11,330
2023-09-26,15,341
2023-09-27,19,326
2023-09-28,25,346
2023-09-29,21,317
2023-09-30,15,289
2023-10-01,13,276
2023-10-02,20,354
2023-10-03,18,346
2023-10-04,31,343
2023-10-05,23,346
2023-10-06,10,310
2023-10-07,16,293
2023-10-08,13,306
2023-10-09,7,335
2023-10-10,13,351
2023-10-11,28,331
2023-10-12,22,351
2023-10-13,14,322
2023-10-14,10,279
2023-10-15,24,294
2023-10-16,19,327
2023-10-17,18,329
2023-10-18,10,340
2023-10-19,13,318
2023-10-20,16,305
2023-10-21,20,274
2023-10-22,15,299
2023-10-23,12,339
2023-10-24,11,348
2023-10-25,7,333
2023-10-26,16,329
2023-10-27,13,295
2023-10-28,10,285
2023-10-29,19,274
2023-10-30,10,334
2023-10-31,8,304
2023-11-01,11,305
2023-11-02,13,320
2023-11-03,6,310
2023-11-04,21,258
2023-11-05,16,284
2023-11-06,15,327
2023-11-07,12,315
2023-11-08,16,327
2023-11-09,8,324
2023-11-10,9,315
2023-11-11,16,252
2023-11-12,16,265
2023-11-13,17,330
2023-11-14,16,360
2023-11-15,10,344
2023-11-16,24,351
2023-11-17,9,274
2023-11-18,15,276
2023-11-19,18,264
2023-11-20,13,326
2023-11-21,23,315
2023-11-22,14,319
2023-11-23,13,304
2023-11-24,11,278
2023-11-25,16,258
2023-11-26,16,267
2023-11-27,9,336
2023-11-28,14,338
2023-11-29,21,306
2023-11-30,19,314
2023-12-01,15,323
2023-12-02,16,265
2023-12-03,15,275
2023-12-04,14,339
2023-12-05,16,242
2023-12-06,11,211
2023-12-07,20,253
2023-12-08,15,241
2023-12-09,9,185
2023-12-10,15,190
2023-12-11,10,229
2023-12-12,17,229
2023-12-13,19,204
2023-12-14,22,218
2023-12-15,12,199
2023-12-16,17,161
2023-12-17,14,171
2023-12-18,12,196
2023-12-19,9,193
2023-12-20,18,187
2023-12-21,17,204
2023-12-22,17,168
2023-12-23,14,168
2023-12-24,25,173
2023-12-25,10,179
2023-12-26,3,164
2023-12-27,9,194
2023-12-28,10,189
2023-12-29,10,189
2023-12-30,12,156
2023-12-31,8,177
2024-01-01,14,163
2024-01-02,13,182
2024-01-03,9,180
2024-01-04,12,188
2024-01-05,11,185
2024-01-06,10,183
2024-01-07,11,171
2024-01-08,11,207
2024-01-09,13,201
2024-01-10,15,210
2024-01-11,16,216
2024-01-12,14,216
2024-01-13,17,192
2024-01-14,16,192
2024-01-15,21,218
2024-01-16,15,224
2024-01-17,16,229
2024-01-18,22,218
2024-01-19,19,208
2024-01-20,12,196
2024-01-21,14,188
2024-01-22,16,224
2024-01-23,18,279
2024-01-24,12,252
2024-01-25,12,289
2024-01-26,12,250
2024-01-27,12,223
2024-01-28,16,253
2024-01-29,12,260
2024-01-30,8,277
2024-01-31,18,258
2024-02-01,17,254
2024-02-02,14,252
2024-02-03,12,222
2024-02-04,12,214
2024-02-05,8,253
2024-02-06,13,266
2024-02-07,17,260
2024-02-08,21,277
2024-02-09,17,257
2024-02-10,17,236
2024-02-11,6,206
2024-02-12,17,242
2024-02-13,12,247
2024-02-14,14,262
2024-02-15,10,258
2024-02-16,11,232
2024-02-17,11,211
2024-02-18,14,240
2024-02-19,14,242
2024-02-20,13,267
2024-02-21,13,266
2024-02-22,15,269
2024-02-23,12,263
2024-02-24,18,229
2024-02-25,13,227
2024-02-26,12,262
2024-02-27,11,268
2024-02-28,12,255
2024-02-29,21,269
2024-03-01,17,278
2024-03-02,14,209
2024-03-03,11,225
2024-03-04,8,250
2024-03-05,13,252
2024-03-06,14,249
2024-03-07,16,255
2024-03-08,15,258
2024-03-09,12,232
2024-03-10,19,235
2024-03-11,16,269
2024-03-12,15,271
2024-03-13,15,278
2024-03-14,9,251
2024-03-15,17,241
2024-03-16,17,206
2024-03-17,13,224
2024-03-18,18,272
2024-03-19,8,268
2024-03-20,18,260
2024-03-21,6,256
2024-03-22,5,263
2024-03-23,10,207
2024-03-24,13,231
2024-03-25,12,262
2024-03-26,12,272
2024-03-27,19,253
2024-03-28,20,250
2024-03-29,8,239
2024-03-30,10,215
2024-03-31,7,211
2024-04-01,18,246
2024-04-02,8,259
2024-04-03,16,261
2024-04-04,18,247
2024-04-05,14,261
2024-04-06,11,217
2024-04-07,8,231
2024-04-08,3,271
2024-04-09,7,254
2024-04-10,5,246
2024-04-11,10,248
2024-04-12,14,260
2024-04-13,10,219
2024-04-14,11,226
2024-04-15,12,259
2024-04-16,10,276
2024-04-17,9,241
2024-04-18,14,260
2024-04-19,10,251
2024-04-20,18,223
2024-04-21,10,211
2024-04-22,9,277
2024-04-23,9,243
2024-04-24,8,248
2024-04-25,9,256
2024-04-26,16,227
2024-04-27,9,193
2024-04-28,15,220
2024-04-29,13,253
2024-04-30,10,241
2024-05-01,15,229
2024-05-02,15,243
2024-05-03,11,245
2024-05-04,12,228
2024-05-05,15,223
2024-05-06,16,268
2024-05-07,18,261
2024-05-08,17,236
2024-05-09,16,242
2024-05-10,18,252
2024-05-11,9,212
2024-05-12,16,213
2024-05-13,21,261
2024-05-14,20,284
2024-05-15,14,273
2024-05-16,31,247
2024-05-17,19,240
2024-05-18,16,225
2024-05-19,20,213
2024-05-20,15,236
2024-05-21,18,242
2024-05-22,25,249
2024-05-23,11,243